Find Starlink 31688

NORAD ID: 59386 Int'l Des: 2024-062 Owner: SPXS Country: US Constellation: starlink operational
LEOCIRCULAR

当前视图

正在加载3D地球...

About Starlink 31688

Starlink 31688 (NORAD 59386) is a starlink constellation satellite (v2 mini) launched Apr 2, 2024 by SPXS of US. It operates in LEO, CIRCULAR orbit with a mass of 730.00 kg.

即将过境

Passes for default location (London). Set your location on the main map for personalized predictions.

高度历史

Loading altitude history...

两行轨道根数

1 59386U 24062N 26262.95715337 .00003033 00000-0 10082-3 0 9996
2 59386 53.1597 71.9732 0000907 132.0798 228.0282 15.34417069139397
Epoch: Sep 19, 2026 • Age: 22 hours

当前状态

高度 463.3 km
远地点 / 近地点 N/A
速度 7.64 km/s
星下点 20.15°N, 129.29°E
发射日期 Apr 2, 2024
运行时间 2.4 years
类型 internet

技术详情

分类 Payload
质量 730.00 kg
干质量 700.00 kg
长度 0.30 m
跨度 29.00 m
形状 ? Box + pan
制造商 SPXS
平台类型 Starlink V2M
阶段状态 In Orbit
所有者/国家 SPXS/US

Most Searched